| time (UTC) | temp F | wind direction | speed MPH | gust MPH | rain 1hr in | rain 24hr in | rain mn in | humidity % | barometer mb |
| 20260505100018 | 71 | 203 | 2.0 | 9.0 | 0.00 | 0.00 | 0.00 | 75 | 994.8 |
| 20260505094514 | 71 | 249 | 4.0 | 12.0 | 0.00 | 0.00 | 0.00 | 75 | 994.8 |
| 20260505093022 | 71 | 176 | 3.0 | 12.0 | 0.00 | 0.00 | 0.00 | 75 | 994.8 |
| 20260505091514 | 71 | 240 | 4.0 | 11.0 | 0.00 | 0.00 | 0.00 | 75 | 994.8 |
| 20260505090006 | 71 | 233 | 2.0 | 15.0 | 0.00 | 0.00 | 0.00 | 75 | 994.9 |
| 20260505084504 | 71 | 271 | 4.0 | 10.0 | 0.00 | 0.00 | 0.00 | 75 | 995.1 |
| 20260505083002 | 71 | 297 | 3.0 | 10.0 | 0.00 | 0.00 | 0.00 | 75 | 995.2 |
| 20260505081559 | 71 | 280 | 4.0 | 12.0 | 0.00 | 0.00 | 0.00 | 75 | 995.5 |
| 20260505080057 | 71 | 190 | 3.0 | 9.0 | 0.00 | 0.00 | 0.00 | 75 | 995.4 |
| 20260505074555 | 71 | 198 | 5.0 | 11.0 | 0.00 | 0.00 | 0.00 | 75 | 995.6 |
| 20260505073059 | 71 | 353 | 3.0 | 8.0 | 0.00 | 0.00 | 0.00 | 75 | 995.6 |
| 20260505071551 | 71 | 238 | 4.0 | 11.0 | 0.00 | 0.00 | 0.00 | 75 | 996.0 |
| 20260505070048 | 71 | 252 | 2.0 | 11.0 | 0.00 | 0.00 | 0.00 | 75 | 996.1 |
| 20260505064544 | 71 | 270 | 2.0 | 13.0 | 0.00 | 0.00 | 0.00 | 75 | 996.4 |
| 20260505063049 | 71 | 246 | 6.0 | 11.0 | 0.00 | 0.00 | 0.00 | 74 | 996.3 |
| 20260505061547 | 71 | 313 | 3.0 | 9.0 | 0.00 | 0.00 | 0.00 | 74 | 996.5 |
| 20260505060040 | 72 | 241 | 3.0 | 10.0 | 0.00 | 0.00 | 0.00 | 74 | 996.5 |
| 20260505054555 | 72 | 29 | 5.0 | 11.0 | 0.00 | 0.00 | 0.00 | 74 | 996.8 |
| 20260505053044 | 72 | 146 | 3.0 | 10.0 | 0.00 | 0.00 | 0.00 | 73 | 996.9 |
| 20260505051543 | 72 | 155 | 4.0 | 10.0 | 0.00 | 0.00 | 0.00 | 73 | 997.0 |
| 20260505041544 | 72 | 159 | 5.0 | 11.0 | 0.00 | 0.00 | 0.00 | 73 | 997.4 |
| 20260505040030 | 72 | 174 | 5.0 | 9.0 | 0.00 | 0.00 | 0.00 | 72 | 997.5 |
| 20260505034530 | 73 | 146 | 4.0 | 15.0 | 0.00 | 0.00 | 0.00 | 72 | 997.5 |
| 20260505033029 | 73 | 212 | 5.0 | 15.0 | 0.00 | 0.00 | 0.00 | 71 | 997.5 |
| 20260505031534 | 73 | 144 | 5.0 | 14.0 | 0.00 | 0.00 | 0.00 | 70 | 997.4 |
| 20260505030027 | 74 | 210 | 3.0 | 12.0 | 0.00 | 0.00 | 0.00 | 69 | 997.1 |
| 20260505024526 | 74 | 240 | 3.0 | 12.0 | 0.00 | 0.00 | 0.00 | 68 | 997.0 |
| 20260505023026 | 75 | 12 | 4.0 | 9.0 | 0.00 | 0.00 | 0.00 | 67 | 997.1 |
| 20260505021525 | 75 | 22 | 4.0 | 14.0 | 0.00 | 0.00 | 0.00 | 66 | 996.8 |
| 20260505020125 | 76 | 266 | 2.0 | 11.0 | 0.00 | 0.00 | 0.00 | 65 | 996.7 |
| 20260505014523 | 76 | 264 | 2.0 | 11.0 | 0.00 | 0.00 | 0.00 | 64 | 996.8 |
| 20260505013022 | 77 | 336 | 5.0 | 18.0 | 0.00 | 0.00 | 0.00 | 63 | 996.8 |
| 20260505011520 | 77 | 198 | 5.0 | 13.0 | 0.00 | 0.00 | 0.00 | 62 | 996.8 |
| 20260505010019 | 78 | 65 | 4.0 | 10.0 | 0.00 | 0.00 | 0.00 | 61 | 997.1 |
| 20260505004519 | 78 | 238 | 5.0 | 15.0 | 0.00 | 0.00 | 0.00 | 60 | 996.9 |
| 20260505003024 | 79 | 103 | 5.0 | 15.0 | 0.00 | 0.00 | 0.00 | 58 | 997.0 |
| 20260505001518 | 80 | 255 | 5.0 | 13.0 | 0.00 | 0.00 | 0.00 | 57 | 997.2 |
| 20260505000016 | 80 | 119 | 6.0 | 13.0 | 0.00 | 0.00 | 0.00 | 57 | 997.3 |
| 20260504234514 | 81 | 190 | 4.0 | 12.0 | 0.00 | 0.00 | 0.00 | 56 | 997.5 |
| 20260504233014 | 81 | 113 | 4.0 | 14.0 | 0.00 | 0.00 | 0.00 | 55 | 997.5 |
| 20260504231512 | 81 | 224 | 5.0 | 13.0 | 0.00 | 0.00 | 0.00 | 55 | 997.6 |
| 20260504230011 | 82 | 188 | 4.0 | 11.0 | 0.00 | 0.00 | 0.00 | 53 | 997.8 |
| 20260504224512 | 81 | 235 | 4.0 | 15.0 | 0.00 | 0.00 | 0.00 | 53 | 997.9 |
| 20260504223008 | 81 | 158 | 5.0 | 12.0 | 0.00 | 0.00 | 0.00 | 52 | 998.0 |
| 20260504221506 | 81 | 253 | 4.0 | 12.0 | 0.00 | 0.00 | 0.00 | 52 | 998.2 |
| 20260504220005 | 81 | 1 | 3.0 | 11.0 | 0.00 | 0.00 | 0.00 | 51 | 998.4 |
| 20260504214503 | 81 | 354 | 4.0 | 11.0 | 0.00 | 0.00 | 0.00 | 52 | 998.6 |
| 20260504213104 | 81 | 255 | 5.0 | 12.0 | 0.00 | 0.00 | 0.00 | 52 | 998.8 |
| 20260504211602 | 80 | 255 | 4.0 | 13.0 | 0.00 | 0.00 | 0.00 | 51 | 999.1 |
| 20260504204556 | 81 | 326 | 3.0 | 10.0 | 0.00 | 0.00 | 0.00 | 49 | 999.7 |
| 20260504203054 | 82 | 152 | 3.0 | 15.0 | 0.00 | 0.00 | 0.00 | 48 | 999.8 |
| 20260504201552 | 81 | 317 | 4.0 | 14.0 | 0.00 | 0.00 | 0.00 | 49 | 999.9 |
| 20260504200059 | 81 | 172 | 4.0 | 13.0 | 0.00 | 0.00 | 0.00 | 48 | 1000.2 |
| 20260504194547 | 81 | 30 | 5.0 | 15.0 | 0.00 | 0.00 | 0.00 | 47 | 1000.6 |
| 20260504193048 | 81 | 240 | 5.0 | 12.0 | 0.00 | 0.00 | 0.00 | 47 | 1000.8 |
| 20260504191552 | 81 | 240 | 4.0 | 11.0 | 0.00 | 0.00 | 0.00 | 46 | 1001.1 |
| 20260504190041 | 80 | 226 | 4.0 | 12.0 | 0.00 | 0.00 | 0.00 | 47 | 1001.1 |
| 20260504184540 | 79 | 211 | 5.0 | 16.0 | 0.00 | 0.00 | 0.00 | 48 | 1001.3 |
| 20260504183037 | 79 | 252 | 4.0 | 11.0 | 0.00 | 0.00 | 0.00 | 48 | 1001.6 |
| 20260504181533 | 78 | 308 | 5.0 | 12.0 | 0.00 | 0.00 | 0.00 | 49 | 1001.9 |
| 20260504180030 | 78 | 191 | 4.0 | 14.0 | 0.00 | 0.00 | 0.00 | 49 | 1002.0 |
| 20260504174527 | 78 | 232 | 4.0 | 13.0 | 0.00 | 0.00 | 0.00 | 49 | 1002.3 |
| 20260504173025 | 77 | 285 | 6.0 | 12.0 | 0.00 | 0.00 | 0.00 | 49 | 1002.7 |
| 20260504171524 | 77 | 150 | 5.0 | 12.0 | 0.00 | 0.00 | 0.00 | 49 | 1002.6 |